TimePDT,TemperatureF,Dew PointF,Humidity,Sea Level PressureIn,VisibilityMPH,Wind Direction,Wind SpeedMPH,Gust SpeedMPH,PrecipitationIn,Events,Conditions,WindDirDegrees,DateUTC
12:56 AM,64.9,59.0,81,29.98,10.0,North,3.5,-,N/A,,Clear,350,2013-08-31 07:56:00
1:56 AM,66.0,60.1,81,29.97,10.0,Calm,Calm,-,N/A,,Clear,0,2013-08-31 08:56:00
2:56 AM,64.9,60.1,84,29.96,10.0,Calm,Calm,-,N/A,,Clear,0,2013-08-31 09:56:00
3:56 AM,64.0,59.0,84,29.96,10.0,Calm,Calm,-,N/A,,Clear,0,2013-08-31 10:56:00
4:56 AM,62.1,57.9,86,29.96,10.0,Calm,Calm,-,N/A,,Clear,0,2013-08-31 11:56:00
5:56 AM,63.0,57.9,84,29.98,10.0,Calm,Calm,-,N/A,,Clear,0,2013-08-31 12:56:00
6:56 AM,62.1,57.9,86,30.00,10.0,Calm,Calm,-,N/A,,Clear,0,2013-08-31 13:56:00
7:45 AM,62.6,57.2,82,30.00,10.0,Calm,Calm,-,N/A,,Scattered Clouds,0,2013-08-31 14:45:00
7:56 AM,63.0,57.9,84,30.01,10.0,NNW,3.5,-,N/A,,Partly Cloudy,340,2013-08-31 14:56:00
8:56 AM,66.0,57.9,75,30.01,10.0,NNE,3.5,-,N/A,,Clear,30,2013-08-31 15:56:00
9:56 AM,66.9,57.9,73,30.01,10.0,NNW,3.5,-,N/A,,Clear,340,2013-08-31 16:56:00
10:56 AM,71.1,57.0,61,30.01,10.0,North,5.8,-,N/A,,Clear,350,2013-08-31 17:56:00
11:56 AM,72.0,60.1,66,30.00,10.0,North,9.2,-,N/A,,Clear,360,2013-08-31 18:56:00
12:56 PM,75.0,57.9,55,29.99,10.0,NNW,12.7,-,N/A,,Clear,340,2013-08-31 19:56:00
1:56 PM,73.9,57.9,57,29.98,10.0,NNW,16.1,20.7,N/A,,Clear,340,2013-08-31 20:56:00
2:56 PM,75.0,57.9,55,29.96,10.0,NNW,17.3,23.0,N/A,,Clear,340,2013-08-31 21:56:00
3:56 PM,73.9,60.1,62,29.94,10.0,North,18.4,-,N/A,,Clear,350,2013-08-31 22:56:00
4:56 PM,73.9,60.1,62,29.93,10.0,North,17.3,-,N/A,,Clear,350,2013-08-31 23:56:00
5:56 PM,73.0,60.1,64,29.92,10.0,North,17.3,-,N/A,,Clear,350,2013-09-01 00:56:00
6:56 PM,71.1,61.0,70,29.92,10.0,NNW,15.0,-,N/A,,Clear,340,2013-09-01 01:56:00
7:56 PM,68.0,60.1,76,29.94,10.0,North,12.7,-,N/A,,Clear,360,2013-09-01 02:56:00
8:56 PM,68.0,57.0,68,29.95,10.0,NNW,9.2,-,N/A,,Clear,340,2013-09-01 03:56:00
9:56 PM,64.9,59.0,81,29.96,10.0,NNE,8.1,-,N/A,,Mostly Cloudy,30,2013-09-01 04:56:00
10:56 PM,64.0,59.0,84,29.97,10.0,North,6.9,-,N/A,,Clear,360,2013-09-01 05:56:00
11:56 PM,64.0,57.9,80,29.97,10.0,North,9.2,-,N/A,,Partly Cloudy,360,2013-09-01 06:56:00